Find Starlink 35138

NORAD ID: 65420 Int'l Des: 2025-192 Owner: SPXS Country: US Constellation: starlink operational
LEOCIRCULAR

リアルタイム位置

3D地球を読み込み中...

Starlink 35138について

説明を読み込み中...

次回通過

Passes for default location (London). Set your location on the main map for personalized predictions.

高度履歴

Loading altitude history...

軌道要素

1 65420U 25192S 26107.14527483 .00012277 00000-0 42586-3 0 9993
2 65420 53.1607 53.6118 0001709 72.3056 287.8131 15.30206960 35274
Epoch: Apr 17, 2026 • Age: 14 hours

現在のステータス

高度 479.9 km
速度 7.63 km/s
衛星直下点 50.41°N, 0.49°E
打ち上げ日 Aug 31, 2025
運用期間 0.6 years
タイプ internet

技術仕様

分類 Payload
質量 575.00 kg
乾燥質量 530.00 kg
総質量 575.00 kg
長さ 0.30 m
直径 4.10 m
スパン 29.00 m
形状 Box + pan
製造者 SPXS
バスタイプ Starlink V2MO
フェーズステータス In Orbit
所有者/国 SPXS/US

Most Searched